Location: St. Louis
(38.6270°N, 90.1994°W)
Time: 23:02:13
(UTC-05:00)

ISS - Pass Details

Date: 11 April 2014
Orbit: 402 x 404 km, 51.6° (Epoch: 27 May)

Event Time Altitude Azimuth Distance (km) Brightness Sun altitude
Rises 21:10:11 0° 292° (WNW) 2,330 2.2 -18.5°
Reaches altitude 10° 21:13:47 10° 333° (NNW) 1,466 0.3 -19.1°
Maximum altitude 21:14:36 11° 347° (NNW) 1,425 0.0 -19.2°
Drops below altitude 10° 21:15:24 10° 2° (N) 1,465 -0.2 -19.4°
Enters shadow 21:17:39 - 32° (NNE) 1,911 0.1 -19.8°
